Total_Precipitation_Accumulation
0.29 0.34 0.43 0.57 0.51 0.35 0.16 0.05 0.01 0.02 0.04 0.04 0.05 0.05 0.06 0.09 0.14 0.19 0.16 0.17 0.17 0.19 0.28 0.47 0.64 0.64 0.59 0.54 0.47 0.42 0.43 0.47 0.52 0.54 0.54 0.51 0.50 0.50 0.56 0.58 0.58 0.59 0.61 0.69 0.77 0.75 0.71 0.62 0.43
0.33 0.48 0.69 0.78 0.54 0.32 0.16 0.05 0.02 0.02 0.04 0.04 0.05 0.06 0.09 0.13 0.15 0.15 0.17 0.24 0.27 0.27 0.32 0.47 0.65 0.68 0.66 0.59 0.50 0.48 0.51 0.53 0.61 0.64 0.64 0.66 0.64 0.62 0.60 0.62 0.60 0.56 0.55 0.59 0.61 0.52 0.46 0.40 0.29
0.53 0.75 0.93 0.85 0.58 0.31 0.16 0.06 0.03 0.03 0.04 0.05 0.06 0.10 0.17 0.19 0.19 0.21 0.23 0.29 0.37 0.41 0.42 0.58 0.74 0.82 0.79 0.69 0.61 0.57 0.59 0.61 0.65 0.72 0.78 0.81 0.83 0.76 0.68 0.62 0.58 0.52 0.46 0.40 0.37 0.33 0.29 0.27 0.23
0.85 1.11 1.14 0.90 0.52 0.24 0.12 0.10 0.06 0.06 0.05 0.05 0.08 0.14 0.21 0.21 0.24 0.27 0.31 0.38 0.41 0.53 0.59 0.76 0.93 1.01 1.01 0.85 0.75 0.71 0.69 0.70 0.71 0.74 0.81 0.88 0.96 0.93 0.79 0.64 0.49 0.42 0.38 0.33 0.28 0.26 0.25 0.21 0.18
1.16 1.30 1.17 0.84 0.40 0.19 0.10 0.10 0.09 0.08 0.08 0.09 0.11 0.16 0.27 0.26 0.32 0.45 0.46 0.48 0.48 0.55 0.68 0.88 1.11 1.18 1.19 1.08 0.97 0.93 0.90 0.87 0.83 0.82 0.86 0.93 0.93 0.86 0.77 0.57 0.43 0.38 0.36 0.34 0.29 0.26 0.27 0.24 0.20
1.37 1.42 1.12 0.68 0.32 0.16 0.10 0.11 0.13 0.13 0.12 0.15 0.19 0.26 0.37 0.42 0.51 0.62 0.66 0.64 0.58 0.60 0.78 0.99 1.27 1.31 1.29 1.24 1.12 1.09 1.10 1.08 1.03 0.98 0.98 0.99 0.95 0.85 0.72 0.59 0.48 0.41 0.38 0.37 0.34 0.30 0.28 0.27 0.24
1.32 1.27 0.92 0.50 0.29 0.19 0.13 0.13 0.17 0.18 0.17 0.19 0.23 0.33 0.50 0.65 0.80 0.83 0.89 0.92 0.88 0.86 0.98 1.15 1.37 1.45 1.47 1.38 1.24 1.17 1.18 1.20 1.16 1.09 1.03 0.95 0.88 0.82 0.71 0.59 0.53 0.47 0.43 0.41 0.36 0.34 0.30 0.29 0.28
1.29 1.44 0.86 0.50 0.32 0.24 0.16 0.15 0.18 0.23 0.24 0.21 0.28 0.39 0.54 0.75 1.01 1.15 1.24 1.32 1.28 1.23 1.31 1.40 1.47 1.49 1.49 1.42 1.30 1.24 1.19 1.23 1.27 1.20 1.00 0.86 0.79 0.78 0.72 0.57 0.52 0.48 0.45 0.43 0.38 0.35 0.31 0.29 0.27
1.24 1.60 0.96 0.48 0.40 0.29 0.24 0.22 0.23 0.27 0.34 0.30 0.31 0.40 0.57 0.84 1.24 1.48 1.72 1.75 1.71 1.68 1.61 1.65 1.66 1.65 1.63 1.56 1.40 1.38 1.29 1.25 1.25 1.21 1.01 0.88 0.86 0.79 0.71 0.55 0.46 0.45 0.44 0.42 0.41 0.37 0.32 0.27 0.22
1.25 1.33 0.86 0.51 0.45 0.41 0.39 0.36 0.37 0.42 0.48 0.45 0.42 0.57 0.82 1.20 1.60 1.78 1.75 1.79 1.80 1.93 1.83 1.75 1.73 1.69 1.73 1.68 1.60 1.62 1.46 1.30 1.21 1.07 1.02 0.98 0.91 0.80 0.67 0.60 0.51 0.47 0.43 0.43 0.45 0.43 0.38 0.29 0.20
0.90 0.80 0.66 0.59 0.51 0.52 0.52 0.49 0.45 0.52 0.52 0.50 0.43 0.59 0.93 1.43 1.84 2.11 2.18 1.98 1.96 2.05 2.06 1.99 1.93 1.84 1.75 1.81 1.70 1.64 1.58 1.41 1.31 1.14 1.09 1.08 1.06 0.95 0.85 0.74 0.71 0.64 0.52 0.50 0.47 0.48 0.37 0.26 0.19
0.69 0.55 0.61 0.69 0.61 0.58 0.59 0.59 0.53 0.56 0.55 0.52 0.52 0.62 0.93 1.37 1.83 2.12 2.42 2.30 2.30 2.28 2.23 2.22 2.15 2.09 1.91 1.83 1.77 1.72 1.62 1.48 1.34 1.19 1.14 1.12 1.06 0.97 0.86 0.72 0.69 0.69 0.55 0.52 0.48 0.42 0.35 0.28 0.22
0.60 0.57 0.60 0.69 0.68 0.60 0.60 0.61 0.61 0.60 0.61 0.64 0.70 0.84 1.03 1.37 1.86 2.22 2.62 2.72 2.64 2.56 2.52 2.45 2.29 2.23 2.14 1.95 1.80 1.78 1.77 1.64 1.48 1.38 1.25 1.13 1.02 0.88 0.81 0.74 0.72 0.71 0.62 0.54 0.50 0.41 0.39 0.35 0.30
0.51 0.59 0.65 0.72 0.75 0.65 0.64 0.59 0.62 0.63 0.69 0.78 0.79 0.88 1.07 1.40 1.81 2.22 2.64 2.85 2.67 2.74 2.82 2.76 2.56 2.35 2.27 2.07 1.81 1.75 1.83 1.81 1.79 1.61 1.36 1.31 1.21 1.04 0.91 0.82 0.78 0.73 0.67 0.61 0.55 0.47 0.45 0.43 0.38
0.58 0.71 0.76 0.75 0.74 0.70 0.72 0.75 0.63 0.61 0.76 0.84 0.83 0.91 1.03 1.30 1.72 2.08 2.38 2.60 2.65 2.66 2.89 2.95 2.82 2.66 2.44 2.30 2.07 1.84 1.90 1.93 1.89 1.77 1.59 1.50 1.44 1.32 1.16 1.01 0.87 0.75 0.70 0.69 0.69 0.67 0.61 0.53 0.46
0.91 1.00 0.93 0.70 0.71 0.71 0.84 0.85 0.61 0.61 0.72 0.82 0.86 0.92 1.00 1.14 1.56 1.98 2.22 2.46 2.69 2.68 2.76 2.97 2.96 2.90 2.75 2.55 2.32 2.02 1.90 1.93 1.88 1.74 1.66 1.58 1.51 1.44 1.35 1.16 1.02 0.94 0.90 0.86 0.81 0.78 0.74 0.63 0.53
1.28 1.07 0.74 0.64 0.67 0.73 0.78 0.80 0.63 0.57 0.68 0.76 0.85 0.88 0.95 1.03 1.30 1.78 2.10 2.28 2.59 2.65 2.70 2.87 2.95 2.98 3.04 2.96 2.78 2.42 2.09 2.04 2.00 1.87 1.66 1.60 1.56 1.48 1.41 1.27 1.14 1.12 1.09 0.99 0.89 0.83 0.76 0.71 0.65
0.93 0.71 0.56 0.61 0.63 0.64 0.67 0.71 0.69 0.66 0.71 0.73 0.83 0.91 0.94 0.98 1.09 1.44 1.93 2.13 2.60 2.84 2.91 2.92 3.02 3.20 3.35 3.44 3.28 3.01 2.53 2.23 2.09 1.96 1.79 1.65 1.59 1.54 1.48 1.40 1.30 1.22 1.23 1.17 1.07 0.96 0.89 0.81 0.75
0.69 0.61 0.53 0.53 0.53 0.62 0.64 0.69 0.74 0.72 0.68 0.74 0.84 0.90 0.93 0.95 1.04 1.33 1.75 2.04 2.45 2.88 3.04 3.09 3.01 3.17 3.46 3.40 3.19 2.92 2.61 2.38 2.16 2.02 1.91 1.79 1.70 1.61 1.53 1.41 1.42 1.39 1.31 1.26 1.23 1.19 1.14 1.05 0.99
0.87 0.79 0.62 0.58 0.54 0.67 0.66 0.69 0.67 0.67 0.65 0.66 0.74 0.81 0.84 0.83 0.95 1.24 1.53 1.84 2.07 2.64 2.96 3.00 3.08 3.19 3.37 3.32 3.21 3.12 2.97 2.73 2.49 2.32 2.04 1.87 1.75 1.66 1.61 1.51 1.39 1.42 1.44 1.37 1.34 1.33 1.33 1.29 1.25
0.95 0.82 0.64 0.66 0.73 0.72 0.69 0.75 0.62 0.58 0.57 0.57 0.68 0.75 0.76 0.77 0.91 1.10 1.30 1.57 1.72 2.10 2.55 2.75 2.79 3.00 3.16 3.37 3.65 3.64 3.46 3.07 2.60 2.31 2.15 1.98 1.95 1.85 1.70 1.69 1.62 1.48 1.48 1.44 1.36 1.29 1.28 1.30 1.32
0.95 0.63 0.64 0.69 0.88 0.93 0.75 0.96 0.67 0.56 0.55 0.55 0.65 0.72 0.74 0.75 0.85 1.01 1.16 1.27 1.46 1.70 2.10 2.48 2.67 2.80 2.85 2.98 3.29 3.43 3.29 2.89 2.50 2.26 2.25 2.26 2.16 2.12 2.03 1.90 1.84 1.71 1.61 1.54 1.52 1.50 1.42 1.39 1.37
0.85 0.59 0.70 0.80 0.95 0.98 0.69 0.84 0.73 0.57 0.61 0.61 0.65 0.72 0.75 0.80 0.90 1.00 1.07 1.08 1.20 1.44 1.81 2.16 2.44 2.65 2.67 2.62 2.77 3.04 3.18 3.07 2.87 2.61 2.45 2.39 2.30 2.17 2.12 2.05 1.99 1.87 1.75 1.71 1.71 1.66 1.63 1.59 1.50
0.90 0.95 1.09 1.21 1.55 1.56 0.69 0.67 0.70 0.68 0.75 0.67 0.65 0.74 0.80 0.90 0.97 0.99 1.02 1.03 1.08 1.23 1.49 1.80 2.08 2.41 2.58 2.52 2.59 2.70 2.78 2.92 2.88 2.61 2.53 2.44 2.46 2.35 2.17 2.06 2.02 1.97 1.90 1.84 1.84 1.85 1.79 1.70 1.62
1.39 1.91 2.46 2.45 2.23 1.32 0.43 0.50 0.74 0.66 0.68 0.68 0.69 0.74 0.78 0.81 0.88 0.89 0.89 0.92 1.03 1.15 1.29 1.51 1.64 1.92 2.21 2.34 2.38 2.44 2.51 2.60 2.71 2.64 2.54 2.48 2.36 2.29 2.23 2.11 2.06 2.04 1.94 1.89 1.89 1.86 1.80 1.77 1.70
1.43 1.71 1.91 1.68 1.12 0.63 0.38 0.58 0.72 0.60 0.58 0.60 0.63 0.69 0.79 0.86 0.90 0.91 0.89 0.93 1.06 1.12 1.20 1.33 1.45 1.58 1.84 2.06 2.09 2.13 2.28 2.35 2.35 2.41 2.37 2.32 2.26 2.19 2.22 2.21 2.08 2.04 2.00 1.90 1.85 1.81 1.73 1.72 1.71
1.36 1.29 1.04 1.32 0.95 0.71 0.58 0.54 0.54 0.45 0.49 0.52 0.53 0.58 0.72 0.82 0.85 0.91 0.94 0.98 1.03 1.07 1.13 1.23 1.32 1.35 1.49 1.75 1.87 1.94 2.00 2.01 1.94 1.96 1.97 1.99 2.02 2.04 2.06 2.08 1.99 1.90 1.88 1.83 1.79 1.74 1.65 1.61 1.60
1.20 1.07 1.17 1.61 1.38 1.00 0.61 0.50 0.67 0.59 0.56 0.55 0.56 0.58 0.67 0.77 0.84 0.91 0.95 0.92 0.92 0.95 1.04 1.15 1.18 1.18 1.23 1.39 1.52 1.68 1.76 1.75 1.76 1.73 1.67 1.65 1.64 1.69 1.76 1.81 1.80 1.74 1.70 1.68 1.65 1.60 1.57 1.56 1.49
1.02 1.19 1.29 1.29 1.08 1.10 0.79 0.69 0.69 0.63 0.61 0.61 0.67 0.67 0.71 0.75 0.86 0.94 0.98 0.93 0.90 0.93 0.99 1.08 1.07 1.07 1.10 1.19 1.26 1.34 1.47 1.54 1.57 1.53 1.41 1.40 1.37 1.36 1.40 1.41 1.44 1.47 1.48 1.49 1.48 1.45 1.44 1.45 1.41
0.81 0.91 1.09 1.43 1.10 0.85 0.83 0.72 0.54 0.54 0.57 0.60 0.70 0.71 0.70 0.71 0.78 0.85 0.92 0.91 0.92 0.96 0.99 1.05 1.03 1.04 1.04 1.08 1.11 1.15 1.24 1.38 1.42 1.44 1.34 1.24 1.25 1.20 1.20 1.20 1.18 1.18 1.19 1.23 1.25 1.23 1.25 1.29 1.28